QPF
0.00 0.00 0.00 0.00 0.00 0.00 0.00 0.00 0.00 0.00 0.00 0.00 0.00 0.00 0.00 0.00 0.00 0.00 0.00 0.00 0.00 0.00 0.00 0.00 0.00 0.00 0.00
0.00 0.00 0.00 0.00 0.00 0.00 0.00 0.00 0.00 0.02 0.02 0.02 0.01 0.00 0.00 0.00 0.00 0.00 0.00 0.00 0.00 0.00 0.00 0.00 0.00 0.00 0.00
0.00 0.00 0.00 0.00 0.00 0.00 0.01 0.01 0.01 0.04 0.02 0.02 0.00 0.00 0.00 0.00 0.00 0.00 0.00 0.00 0.00 0.00 0.00 0.00 0.00 0.00 0.00
0.00 0.00 0.00 0.00 0.01 0.02 0.02 0.01 0.02 0.02 0.02 0.01 0.01 0.02 0.02 0.00 0.00 0.00 0.00 0.00 0.00 0.00 0.00 0.00 0.00 0.00 0.00
0.00 0.01 0.01 0.03 0.04 0.04 0.05 0.06 0.04 0.02 0.02 0.06 0.07 0.03 0.01 0.00 0.00 0.00 0.00 0.00 0.00 0.00 0.00 0.00 0.00 0.00 0.00
0.05 0.06 0.07 0.10 0.10 0.08 0.07 0.04 0.02 0.02 0.04 0.05 0.01 0.00 0.00 0.00 0.00 0.00 0.00 0.00 0.00 0.00 0.00 0.00 0.00 0.00 0.00
0.07 0.09 0.09 0.07 0.07 0.08 0.05 0.03 0.02 0.01 0.00 0.00 0.00 0.00 0.00 0.00 0.00 0.00 0.00 0.00 0.00 0.00 0.00 0.00 0.00 0.00 0.00
0.09 0.10 0.08 0.08 0.06 0.05 0.05 0.02 0.00 0.00 0.00 0.00 0.00 0.00 0.00 0.00 0.00 0.00 0.00 0.00 0.00 0.00 0.00 0.00 0.00 0.00 0.00
0.16 0.16 0.13 0.09 0.07 0.04 0.01 0.00 0.00 0.00 0.00 0.00 0.00 0.00 0.00 0.00 0.00 0.00 0.00 0.00 0.00 0.00 0.00 0.00 0.00 0.00 0.00
0.16 0.14 0.08 0.04 0.01 0.00 0.00 0.00 0.00 0.00 0.00 0.00 0.00 0.00 0.00 0.00 0.00 0.00 0.00 0.00 0.00 0.00 0.00 0.00 0.00 0.00 0.00
0.16 0.09 0.04 0.01 0.00 0.00 0.00 0.00 0.00 0.00 0.00 0.00 0.00 0.00 0.00 0.00 0.00 0.00 0.00 0.00 0.00 0.00 0.00 0.00 0.00 0.00 0.00
0.06 0.03 0.01 0.00 0.00 0.00 0.00 0.00 0.00 0.00 0.00 0.00 0.00 0.00 0.00 0.00 0.00 0.00 0.00 0.00 0.00 0.00 0.00 0.00 0.00 0.00 0.00
0.01 0.00 0.00 0.00 0.00 0.00 0.00 0.00 0.00 0.00 0.00 0.00 0.00 0.00 0.00 0.00 0.00 0.00 0.00 0.00 0.00 0.00 0.00 0.00 0.00 0.00 0.00
0.00 0.00 0.00 0.00 0.00 0.00 0.00 0.00 0.00 0.00 0.00 0.00 0.00 0.00 0.00 0.00 0.00 0.00 0.00 0.00 0.00 0.00 0.00 0.00 0.00 0.00 0.00
0.00 0.00 0.00 0.00 0.00 0.00 0.00 0.00 0.00 0.00 0.00 0.00 0.00 0.00 0.00 0.00 0.00 0.00 0.00 0.00 0.00 0.00 0.00 0.00 0.00 0.00 0.00
0.00 0.00 0.00 0.00 0.00 0.00 0.00 0.00 0.00 0.00 0.00 0.00 0.00 0.00 0.00 0.00 0.00 0.00 0.00 0.00 0.00 0.00 0.00 0.00 0.00 0.00 0.00
0.00 0.00 0.00 0.00 0.00 0.00 0.00 0.00 0.00 0.00 0.00 0.00 0.00 0.00 0.00 0.00 0.00 0.00 0.00 0.00 0.00 0.00 0.00 0.00 0.00 0.00 0.00
MSLP
1019.55 1019.27 1019.21 1019.16 1019.02 1019.07 1019.18 1019.61 1020.12 1020.29 1020.46 1020.71 1020.80 1020.95 1020.96 1020.97 1020.96 1020.96 1020.60 1020.28 1020.04 1019.75 1019.45 1019.20 1018.72 1018.27 1017.86
1019.14 1019.20 1019.00 1018.92 1018.81 1019.02 1019.41 1019.88 1020.42 1020.74 1020.87 1021.28 1021.07 1020.94 1020.70 1020.97 1020.89 1020.99 1020.75 1020.24 1020.11 1020.00 1019.60 1019.26 1018.90 1018.58 1017.79
1018.69 1018.43 1018.60 1018.63 1018.98 1019.40 1019.79 1020.14 1020.65 1020.66 1020.80 1021.00 1021.04 1020.96 1020.60 1020.84 1020.84 1020.99 1020.72 1020.50 1019.93 1019.99 1019.50 1019.18 1018.86 1018.41 1017.92
1018.46 1018.21 1018.30 1018.75 1018.90 1019.26 1019.99 1020.33 1020.75 1020.99 1021.00 1021.04 1021.20 1020.99 1020.91 1020.59 1020.82 1020.89 1020.49 1020.48 1020.07 1019.87 1019.47 1018.85 1018.56 1018.34 1017.92
1017.84 1017.86 1018.22 1018.77 1019.20 1019.77 1020.60 1020.66 1021.19 1021.60 1021.11 1021.08 1021.23 1021.39 1021.28 1020.78 1020.66 1020.45 1020.36 1020.44 1020.44 1019.93 1019.44 1018.92 1018.45 1018.13 1017.54
1017.01 1017.50 1018.17 1018.87 1019.41 1020.04 1020.40 1020.93 1021.30 1021.69 1021.32 1021.35 1021.31 1021.66 1021.52 1021.35 1020.76 1020.37 1020.55 1020.40 1020.35 1020.15 1019.55 1018.87 1018.31 1017.90 1017.36
1016.99 1017.79 1018.42 1018.82 1018.75 1019.78 1020.57 1020.55 1021.56 1021.88 1021.90 1021.59 1021.72 1021.70 1021.48 1021.57 1021.07 1020.73 1020.67 1020.59 1020.30 1020.01 1019.39 1018.73 1018.31 1017.73 1017.15
1017.39 1018.74 1018.64 1018.99 1019.26 1019.40 1020.56 1021.06 1021.84 1022.25 1022.76 1022.50 1022.28 1022.03 1021.60 1021.69 1021.25 1020.86 1020.71 1020.50 1020.19 1019.91 1019.40 1018.96 1018.58 1017.83 1017.04
1018.40 1018.07 1020.08 1019.81 1019.61 1020.10 1020.79 1021.35 1022.04 1022.90 1023.24 1023.00 1023.10 1022.96 1022.04 1021.92 1021.62 1021.05 1020.70 1020.48 1020.32 1020.07 1019.58 1019.24 1018.55 1017.72 1017.31
1020.40 1019.62 1021.64 1020.63 1021.25 1021.20 1021.27 1021.54 1022.44 1023.08 1023.42 1023.55 1023.85 1023.70 1022.91 1022.09 1021.86 1021.30 1021.01 1020.82 1020.68 1020.26 1019.94 1019.34 1018.57 1017.86 1017.41
1019.98 1021.01 1021.66 1021.84 1021.96 1022.39 1022.45 1022.32 1022.79 1023.24 1023.34 1023.67 1024.13 1023.99 1024.18 1023.48 1022.54 1021.80 1021.57 1021.20 1020.88 1020.48 1020.12 1019.45 1018.55 1018.03 1017.31
1020.81 1021.67 1022.16 1022.67 1023.02 1022.78 1023.27 1023.32 1023.14 1023.32 1023.64 1023.86 1024.22 1024.49 1024.49 1023.97 1023.34 1022.36 1022.00 1021.46 1021.19 1020.81 1020.18 1019.37 1018.64 1018.07 1017.47
1021.63 1022.04 1022.33 1023.07 1023.25 1023.53 1023.45 1023.73 1023.81 1023.90 1024.08 1023.94 1024.43 1024.49 1024.41 1024.43 1024.14 1023.20 1022.50 1021.66 1021.29 1020.67 1020.04 1019.61 1018.87 1018.14 1017.02
1021.90 1023.02 1023.46 1023.77 1024.04 1023.98 1024.15 1024.26 1024.54 1024.69 1024.29 1024.50 1024.49 1024.40 1024.52 1024.22 1023.99 1023.48 1022.88 1022.67 1021.41 1020.76 1020.17 1019.63 1018.68 1017.80 1016.95
1022.69 1023.29 1023.84 1024.31 1024.79 1024.77 1024.80 1024.91 1025.56 1025.73 1025.68 1025.10 1024.59 1024.40 1024.28 1024.12 1023.93 1023.17 1022.68 1022.04 1021.33 1020.60 1019.95 1019.07 1018.30 1017.22 1016.41
1022.91 1023.60 1024.18 1025.04 1025.28 1025.59 1025.53 1025.87 1026.22 1026.44 1026.28 1025.72 1025.64 1025.22 1024.45 1023.78 1023.24 1023.05 1022.62 1022.08 1021.26 1020.65 1019.95 1018.84 1017.44 1016.72 1015.97
1023.74 1024.35 1024.56 1025.24 1025.83 1026.31 1026.37 1026.40 1026.51 1026.56 1026.59 1026.31 1026.56 1026.31 1025.82 1025.12 1023.72 1022.43 1022.40 1021.71 1021.03 1020.38 1019.62 1018.97 1017.81 1016.23 1015.56
Thickness
5581 5583 5580 5579 5577 5574 5572 5568 5561 5557 5551 5545 5540 5535 5531 5527 5522 5517 5517 5514 5511 5508 5506 5503 5502 5499 5496
5576 5574 5573 5572 5570 5568 5561 5555 5548 5543 5538 5529 5526 5523 5521 5515 5510 5505 5504 5502 5498 5494 5492 5490 5486 5481 5480
5572 5571 5568 5567 5562 5556 5551 5544 5536 5533 5527 5521 5517 5513 5512 5505 5499 5495 5493 5489 5489 5481 5480 5476 5471 5466 5462
5566 5567 5564 5558 5554 5550 5541 5534 5526 5519 5514 5510 5504 5502 5498 5495 5488 5483 5480 5475 5474 5470 5466 5465 5459 5450 5445
5564 5563 5556 5549 5544 5534 5524 5520 5511 5503 5502 5499 5494 5488 5483 5483 5477 5474 5468 5461 5453 5449 5446 5442 5438 5431 5428
5562 5554 5544 5536 5529 5521 5514 5507 5501 5490 5488 5483 5479 5471 5467 5464 5462 5459 5450 5445 5437 5429 5427 5425 5420 5415 5411
5549 5539 5531 5525 5524 5512 5502 5498 5485 5477 5472 5471 5464 5457 5453 5447 5443 5439 5433 5426 5420 5413 5410 5406 5401 5398 5394
5531 5517 5516 5509 5506 5503 5488 5480 5470 5463 5454 5448 5445 5440 5438 5430 5425 5421 5414 5408 5402 5395 5389 5384 5380 5379 5376
5512 5512 5493 5493 5490 5483 5474 5466 5457 5445 5437 5434 5428 5420 5418 5411 5404 5401 5395 5388 5380 5374 5368 5363 5361 5362 5357
5484 5489 5471 5473 5464 5459 5454 5450 5439 5429 5420 5413 5406 5400 5397 5393 5385 5382 5375 5367 5360 5355 5348 5343 5342 5341 5338
5475 5464 5456 5450 5444 5437 5433 5430 5420 5411 5404 5395 5386 5382 5372 5371 5365 5361 5353 5348 5343 5338 5332 5327 5323 5318 5318
5452 5444 5437 5428 5422 5421 5411 5407 5403 5397 5386 5376 5365 5357 5351 5346 5344 5343 5336 5329 5325 5321 5317 5313 5305 5298 5290
5433 5426 5420 5410 5405 5398 5394 5387 5381 5373 5365 5359 5348 5338 5331 5324 5320 5320 5321 5316 5308 5303 5300 5291 5284 5279 5281
5414 5402 5395 5389 5383 5379 5374 5367 5357 5350 5345 5335 5328 5322 5310 5305 5300 5296 5293 5285 5290 5283 5278 5271 5264 5257 5255
5392 5383 5377 5370 5362 5357 5351 5343 5329 5321 5316 5314 5311 5305 5297 5290 5280 5278 5275 5271 5266 5261 5257 5257 5249 5242 5239
5375 5367 5359 5347 5340 5333 5328 5319 5308 5300 5295 5293 5287 5282 5277 5272 5264 5258 5252 5247 5246 5241 5234 5236 5240 5227 5221
5353 5345 5338 5330 5321 5311 5306 5300 5292 5286 5279 5273 5263 5255 5246 5241 5248 5237 5235 5232 5230 5226 5217 5211 5211 5214 5207